TimeEST,TemperatureF,Dew PointF,Humidity,Sea Level PressureIn,VisibilityMPH,Wind Direction,Wind SpeedMPH,Gust SpeedMPH,PrecipitationIn,Events,Conditions,WindDirDegrees,DateUTC
12:53 AM,41.0,39.9,96,29.89,10.0,West,3.5,-,N/A,,Overcast,270,2013-02-05 05:53:00
1:53 AM,39.9,39.0,97,29.89,7.0,SW,5.8,-,N/A,,Overcast,220,2013-02-05 06:53:00
2:41 AM,39.2,39.2,100,29.87,8.0,SW,4.6,-,N/A,,Overcast,230,2013-02-05 07:41:00
2:53 AM,39.9,39.0,97,29.88,8.0,WSW,4.6,-,N/A,,Overcast,240,2013-02-05 07:53:00
3:53 AM,41.0,39.0,93,29.87,8.0,WSW,6.9,-,N/A,,Overcast,240,2013-02-05 08:53:00
4:53 AM,39.9,39.0,97,29.88,8.0,Calm,Calm,-,N/A,,Overcast,0,2013-02-05 09:53:00
5:01 AM,39.2,39.2,100,29.87,7.0,Calm,Calm,-,N/A,,Overcast,0,2013-02-05 10:01:00
5:53 AM,39.9,39.0,97,29.88,7.0,Calm,Calm,-,N/A,,Overcast,0,2013-02-05 10:53:00
6:47 AM,39.2,39.2,100,29.87,2.5,West,3.5,-,N/A,,Overcast,280,2013-02-05 11:47:00
6:53 AM,39.0,39.0,100,29.89,2.5,NW,6.9,-,N/A,,Overcast,310,2013-02-05 11:53:00
7:10 AM,39.2,37.4,93,29.88,3.0,Variable,5.8,-,N/A,,Overcast,0,2013-02-05 12:10:00
7:29 AM,37.4,37.4,100,29.90,2.5,NW,6.9,-,N/A,,Overcast,320,2013-02-05 12:29:00
7:53 AM,37.0,37.0,100,29.92,2.0,WNW,4.6,-,N/A,,Overcast,300,2013-02-05 12:53:00
8:13 AM,35.6,35.6,100,29.91,1.2,WNW,5.8,-,N/A,,Overcast,300,2013-02-05 13:13:00
8:53 AM,36.0,36.0,100,29.94,1.2,NW,5.8,-,N/A,,Overcast,310,2013-02-05 13:53:00
9:24 AM,35.6,35.6,100,29.94,2.0,WNW,6.9,-,N/A,,Overcast,290,2013-02-05 14:24:00
9:53 AM,36.0,33.1,89,29.96,2.5,WNW,5.8,-,N/A,,Overcast,290,2013-02-05 14:53:00
10:01 AM,35.6,33.8,93,29.95,3.0,WNW,4.6,-,N/A,,Overcast,290,2013-02-05 15:01:00
10:53 AM,37.9,34.0,86,29.96,4.0,Variable,4.6,-,N/A,,Overcast,0,2013-02-05 15:53:00
11:53 AM,39.9,35.1,83,29.97,6.0,WSW,6.9,-,N/A,,Haze,250,2013-02-05 16:53:00
12:53 PM,42.1,36.0,79,29.94,7.0,SW,9.2,-,N/A,,Mostly Cloudy,230,2013-02-05 17:53:00
1:01 PM,42.8,35.6,76,29.92,8.0,SW,9.2,-,N/A,,Mostly Cloudy,220,2013-02-05 18:01:00
1:53 PM,45.0,36.0,71,29.91,10.0,SW,9.2,-,N/A,,Mostly Cloudy,220,2013-02-05 18:53:00
2:53 PM,46.0,35.1,66,29.89,10.0,SW,15.0,-,N/A,,Overcast,230,2013-02-05 19:53:00
3:53 PM,48.0,34.0,58,29.89,10.0,SW,10.4,-,N/A,,Overcast,220,2013-02-05 20:53:00
4:53 PM,48.9,33.1,54,29.88,10.0,SW,11.5,-,N/A,,Mostly Cloudy,230,2013-02-05 21:53:00
5:53 PM,45.0,33.1,63,29.88,10.0,WSW,5.8,-,N/A,,Clear,240,2013-02-05 22:53:00
6:53 PM,44.1,32.0,63,29.90,10.0,WSW,3.5,-,N/A,,Mostly Cloudy,250,2013-02-05 23:53:00
7:53 PM,45.0,32.0,60,29.93,10.0,West,6.9,-,N/A,,Overcast,260,2013-02-06 00:53:00
8:53 PM,44.1,32.0,63,29.96,10.0,West,5.8,-,N/A,,Clear,280,2013-02-06 01:53:00
9:53 PM,42.1,32.0,67,29.99,10.0,WNW,3.5,-,N/A,,Clear,300,2013-02-06 02:53:00
10:53 PM,39.9,33.1,77,30.03,10.0,NW,3.5,-,N/A,,Clear,310,2013-02-06 03:53:00
11:53 PM,37.0,32.0,82,30.04,10.0,Calm,Calm,-,N/A,,Clear,0,2013-02-06 04:53:00